Regional Weather Roundup
Issued by NWS Austin/San Antonio, TX

Home | Current Version | Previous Version | Text Only | Print | Product List | Glossary On
Versions: 1 2 3 4 5 6 7 8 9 10 11 12 13 14 15 16 17 18 19 20 21 22 23 24 25 26 27 28 29 30 31 32 33 34 35 36 37 38 39 40 41 42 43 44 45 46 47 48 49 50
000
ASUS44 KEWX 202310
RWREWX
SOUTH TEXAS REGIONAL WEATHER ROUNDUP
NATIONAL WEATHER SERVICE AUSTIN/SAN ANTONIO TX
600 PM CDT WED SEP 20 2017

NOTE: "FAIR" INDICATED FEW OR NO CLOUDS BELOW 12,000 FEET WITH NO
SIGNIFICANT WEATHER AND/OR OBSTRUCTIONS TO VISIBILITY.

* - THESE STATIONS ARE NOT NWS OR FAA STATIONS...AND ARE NOT SUBJECT
    TO NWS AND FAA QUALITY CONTROL.

TXZ171-172-183>190-210000-
TEXAS HILL COUNTRY AND EDWARDS PLATEAU

CITY           SKY/WX    TMP DP  RH WIND       PRES   REMARKS
JUNCTION       CLOUDY    95  66  38 S14       29.84S HX  98
*LLANO         SUNNY     99  68  36 E9        29.85S HX 104
BURNET         SUNNY     93  69  45 SE8       29.87S HX  98
*HORSESHOE BAY SUNNY     94  68  42 S12G18    29.84S HX  98
*KERRVILLE     CLOUDY    92  70  49 SE10      29.88R HX  97
*FREDERICKSBRG MOSUNNY   92  64  39 S8        29.87S HX  93
*ROCKSPRINGS   NOT AVBL
*BOERNE STAGE  MOSUNNY   90  64  43 S8        29.88R HX  91
*CASTROVILLE   MOSUNNY   97  62  32 SE14      29.84R HX  97
HONDO          CLOUDY    97  66  36 S9        29.82S HX 100
*UVALDE        CLOUDY    96  67  39 S10       29.82S HX 100
DEL RIO        CLOUDY    94  68  42 SE6       29.77F HX  98
LAUGHLIN AFB   CLOUDY    95  67  40 SE7       29.79F HX  99
CARRIZO SPRGS  MOSUNNY   99  64  32 SE8       29.77S HX 101
*EAGLE PASS    CLEAR     99  64  32 VRB7      29.79F HX 101
$$

TXZ173-191>194-202-209-217>225-228-210000-
CENTRAL AND SOUTH CENTRAL TEXAS

CITY           SKY/WX    TMP DP  RH WIND       PRES   REMARKS
GEORGETOWN     SUNNY     92  71  50 SE12G17   29.86S HX  98
AUSTIN/BERGSTM MOSUNNY   94  71  47 SE14      29.83S HX 101
AUSTIN/MABRY   MOSUNNY   93  70  46 S8        29.85R HX  99
*AUSTIN/EXEC   SUNNY     91  70  49 S10       29.85S HX  97
*LAGO VISTA    SUNNY     91  69  48 S10G18    29.87S HX  96
SAN MARCOS     SUNNY     92  72  51 SE13G18   29.85R HX  99
NEW BRAUNFELS  MOSUNNY   93  70  46 S15       29.83R HX  99
RANDOLPH AFB   MOSUNNY   93  70  46 SE15      29.84R HX  99
PT SAN ANTONIO SUNNY     95  69  42 SE14      29.82R HX 100
SAN ANTONIO    MOSUNNY   94  68  42 SE14      29.84R HX  98
STINSON FIELD  MOSUNNY   96  68  39 E13       29.81R HX 101
*LA GRANGE     MOSUNNY   93  76  58 S7        29.83S HX 105
*GIDDINGS      SUNNY     91  70  49 S7        29.86S HX  97
*GONZALES      MOSUNNY   93  76  58 SE10G16   29.83S HX 105
$$

TXZ163>164-176>182-195>201-210>213-226-227-235-210000-
SOUTHEAST TEXAS

CITY           SKY/WX    TMP DP  RH WIND       PRES   REMARKS
COLLEGE STN    SUNNY     92  73  53 SE9       29.85S HX 100
*BRYAN         MOSUNNY   91  72  54 SE10      29.87R HX  98
*CALDWELL      SUNNY     91  72  54 S13       29.85S HX  98
*CROCKETT      CLOUDY    88  73  62 S7        29.90S HX  96
*BRENHAM       SUNNY     93  72  50 SE7       29.86S HX 101
HUNTSVILLE     SUNNY     90  71  53 SE3       29.88S HX  96
CONROE         SUNNY     87  74  64 SE14      29.88F HX  95
HOUSTON BUSH   MOSUNNY   88  75  65 S13       29.88S HX  97
HOUSTON HOBBY  LGT RAIN  84  77  79 SE5       29.87F HX  94
*HOUSTON SW AP CLOUDY    88  76  67 S7        29.88S HX  99
PEARLAND       CLOUDY    89  75  63 S10       29.89S HX  99
HOUSTON HOOKS  CLOUDY    89  73  59 SE7       29.88S HX  97
ELLINGTON FLD  PTSUNNY   86  81  84 SE8       29.90S HX 102
SUGAR LAND     CLOUDY    90  74  59 SE12      29.87R HX  99
*HOUSTON EXEC  CLOUDY    91  75  59 S13       29.88R HX 102
*CLEVELAND MUN CLOUDY    86  76  71 S7        29.89F HX  95
*WHARTON       SUNNY     88  71  58 SE12G17   29.87R HX  94
*COLUMBUS      FAIR      90  72  55 S12       29.86S HX  96
*EAGLE LAKE    CLEAR     91  74  57 S9G18     29.86R HX 101
$$

TXZ214>216-236>238-210000-
THE UPPER TEXAS COAST

CITY           SKY/WX    TMP DP  RH WIND       PRES   REMARKS
*ORANGE        CLOUDY    85  78  77 S9        29.93S HX  97
PORT ARTHUR    CLOUDY    85  76  74 S9        29.91R HX  94
GALVESTON      MOSUNNY   88  78  72 S15       29.90F HX 101
ANGLETON       MOSUNNY   85  76  74 S8        29.89R HX  94
*BAY CITY      HAZE      88  77  69 SE12      29.88R VSB 1/2 HX 100
PALACIOS       NOT AVBL
$$

TXZ229>234-239>247-210000-
TEXAS COASTAL BEND AND RIO GRANDE PLAINS

CITY           SKY/WX    TMP DP  RH WIND       PRES   REMARKS
VICTORIA       SUNNY     89  73  59 S20       29.85S HX  97
*BEEVILLE      SUNNY     91  65  41 SE15      29.83R HX  93
ROCKPORT       MOSUNNY   86  78  77 SE15G23   29.84S HX  98
*PORT ARANSAS  NOT AVBL
*PORT LAVACA   NOT AVBL
*INGLESIDE     SUNNY     88  79  74 MISG      29.84S HX 102
CORPUS CHRISTI PTSUNNY   89  76  65 SE23      29.83R HX 100
CORPUS NAS     CLOUDY    88  79  74 SE17G25   29.84R HX 103
*ROBSTOWN      MOSUNNY   90  75  61 SE17G23   29.84R HX 100
ALICE          MOSUNNY   92  74  55 SE17G25   29.81R HX 101
KINGSVILLE NAS PTSUNNY   90  78  68 SE20G28   29.82R HX 104
COTULLA        PTSUNNY  101  60  25 S8        29.78R HX 101
*FAITH RANCH   SUNNY    100  64  30 SE7G16    29.79S HX 103
LAREDO         SUNNY     99  65  32 S10       29.79R HX 102
$$

TXZ248>255-210000-
DEEP SOUTH TEXAS

CITY           SKY/WX    TMP DP  RH WIND       PRES   REMARKS
BROWNSVILLE    MOSUNNY   89  76  65 SE16      29.84R HX 100
PORT ISABEL    MOSUNNY   88  77  69 SE20      29.83S HX 100
*SOUTH PADRE   NOT AVBL
HARLINGEN      MOSUNNY   92  72  51 SE20      29.81R HX  99
*HEBBRONVILLE  PTSUNNY   95  60  31 S13       29.82R HX  95
MCALLEN        PTSUNNY   97  70  41 SE20      29.80R HX 103
*WESLACO       MOSUNNY   92  71  48 S17       29.80R HX  99
FALFURRIAS     SUNNY    -38  32 100 E18G25    29.80R WCI -70
EDINBURG       MOSUNNY   96  65  36 SE14      29.80R HX  99
*ZAPATA        MOSUNNY   98  61  29 SE7       29.78R HX  98
$$

TXZ213>215-236>238-242>244-246-247-251-254-255-210000-
CMAN STATIONS

STATION/POSITION TIME  TEMP    WIND        PRES    WAVE
                       AIR SEA DIR/SP/G            HT/PER
                 (UTC) (F)     (DEG/KT/KT) (MB)    (FT/S)
SABINE PASS      2248   84 85  170/  8/ 12 1014.6
SEA RIM ST PARK  2200   84     170/  9/ 13 1013.5
NORTH JETTY/GLS  2242      85  150/ 15/ 16 1012.0
EAGLE POINT      2248   85 86  170/ 14/ 16 1012.2
MORGANS POINT    2248   84 83  140/  8/ 12 1012.0
PORT O`CONNOR    2248   84 85  150/ 13/ 17 1010.9
MALAQUITE BEACH  2248   84 85  120/ 18/ 21 1010.0
BAFFIN BAY       2248   85 88  130/ 17/ 23 1010.1
PORT ISABEL      2248   85 85  130/ 15/ 18 1010.5
$$




USA.gov is the U.S. government's official web portal to all federal, state and local government web resources and services.